| time (UTC) | temp F | wind direction | speed knots | gust knots | rain 1hr in | rain 24hr in | rain mn in | humidity % | barometer mb |
| 20260508110736 | 61 | 0 | 0.9 | 1.7 | 0.00 | 0.32 | 0.00 | 84 | 1012.6 |
| 20260508102738 | 62 | 293 | 3.5 | 7.0 | 0.00 | 0.32 | 0.00 | 78 | 1013.6 |
| 20260508102226 | 62 | 338 | 3.5 | 9.6 | 0.00 | 0.32 | 0.00 | 78 | 1013.3 |
| 20260508100735 | 63 | 315 | 5.2 | 7.0 | 0.00 | 0.32 | 0.00 | 75 | 1013.6 |
| 20260508093733 | 63 | 315 | 3.5 | 7.0 | 0.00 | 0.32 | 0.00 | 71 | 1013.4 |
| 20260508090225 | 64 | 338 | 1.7 | 6.1 | 0.00 | 0.32 | 0.00 | 68 | 1013.2 |
| 20260508085736 | 64 | 293 | 3.5 | 7.0 | 0.00 | 0.32 | 0.00 | 70 | 1013.5 |
| 20260508084227 | 62 | 315 | 4.3 | 6.1 | 0.00 | 0.32 | 0.00 | 75 | 1013.3 |
| 20260508075225 | 60 | 315 | 3.5 | 3.5 | 0.00 | 0.32 | 0.00 | 82 | 1013.1 |
| 20260508073737 | 60 | 315 | 1.7 | 3.5 | 0.00 | 0.32 | 0.00 | 82 | 1012.3 |
| 20260508073236 | 60 | 315 | 1.7 | 3.5 | 0.00 | 0.32 | 0.00 | 82 | 1012.4 |
| 20260508071237 | 60 | 293 | 1.7 | 7.0 | 0.00 | 0.32 | 0.00 | 80 | 1012.0 |
| 20260508063224 | 59 | 315 | 1.7 | 5.2 | 0.00 | 0.32 | 0.00 | 87 | 1012.0 |
| 20260508055734 | 56 | 293 | 0.9 | 1.7 | 0.00 | 0.32 | 0.00 | 90 | 1011.6 |
| 20260508045733 | 55 | 293 | 0.9 | 1.7 | 0.00 | 0.32 | 0.00 | 91 | 1011.1 |
| 20260508044734 | 56 | 270 | 0.9 | 3.5 | 0.00 | 0.32 | 0.00 | 91 | 1010.9 |
| 20260508042231 | 56 | 315 | 0.9 | 3.5 | 0.00 | 0.32 | 0.00 | 91 | 1010.7 |
| 20260508021733 | 56 | 270 | 0.0 | 1.7 | 0.00 | 0.32 | 0.00 | 92 | 1011.0 |
| 20260508013229 | 56 | 270 | 0.9 | 3.5 | 0.00 | 0.32 | 0.00 | 92 | 1011.4 |
| 20260508004227 | 56 | 270 | 0.9 | 1.7 | 0.00 | 0.32 | 0.00 | 90 | 1012.1 |
| 20260508000729 | 57 | 293 | 0.9 | 1.7 | 0.00 | 0.32 | 0.00 | 89 | 1012.5 |
| 20260508000236 | 57 | 293 | 0.9 | 3.5 | 0.00 | 0.32 | 0.00 | 89 | 1012.2 |
| 20260507231228 | 62 | 45 | 0.9 | 3.5 | 0.00 | 0.32 | 0.00 | 82 | 1012.5 |
| 20260507224232 | 62 | 45 | 0.9 | 3.5 | 0.00 | 0.32 | 0.00 | 83 | 1012.8 |
| 20260507221234 | 62 | 68 | 3.5 | 6.1 | 0.00 | 0.32 | 0.00 | 83 | 1012.6 |
| 20260507215729 | 62 | 45 | 2.6 | 7.8 | 0.00 | 0.32 | 0.32 | 82 | 1012.6 |
| 20260507214735 | 62 | 68 | 3.5 | 7.8 | 0.00 | 0.32 | 0.32 | 81 | 1012.6 |
| 20260507213735 | 62 | 68 | 4.3 | 7.8 | 0.00 | 0.32 | 0.32 | 82 | 1012.3 |
| 20260507201231 | 62 | 45 | 3.5 | 12.2 | 0.00 | 0.32 | 0.32 | 83 | 1011.8 |
| 20260507195736 | 61 | 23 | 7.0 | 12.2 | 0.00 | 0.32 | 0.32 | 83 | 1011.8 |
| 20260507195229 | 62 | 45 | 4.3 | 13.9 | 0.00 | 0.32 | 0.32 | 83 | 1011.6 |
| 20260507192730 | 62 | 45 | 5.2 | 13.0 | 0.00 | 0.32 | 0.32 | 86 | 1011.4 |
| 20260507192238 | 62 | 45 | 7.0 | 13.0 | 0.00 | 0.32 | 0.32 | 86 | 1011.3 |
| 20260507184231 | 63 | 0 | 3.5 | 7.0 | 0.00 | 0.32 | 0.32 | 82 | 1010.5 |
| 20260507173232 | 63 | 68 | 1.7 | 5.2 | 0.00 | 0.32 | 0.32 | 84 | 1009.9 |
| 20260507172732 | 63 | 68 | 1.7 | 6.1 | 0.00 | 0.32 | 0.32 | 83 | 1010.1 |
| 20260507171734 | 64 | 45 | 1.7 | 6.1 | 0.00 | 0.32 | 0.32 | 83 | 1009.8 |
| 20260507163229 | 65 | 45 | 2.6 | 6.1 | 0.00 | 0.32 | 0.32 | 76 | 1009.9 |
| 20260507153738 | 62 | 45 | 2.6 | 7.0 | 0.01 | 0.32 | 0.32 | 88 | 1009.3 |
| 20260507140236 | 62 | 315 | 1.7 | 7.0 | 0.01 | 0.08 | 0.08 | 85 | 1009.7 |
| 20260507133236 | 64 | 23 | 6.1 | 11.3 | 0.00 | 0.07 | 0.07 | 81 | 1009.6 |
| 20260507131225 | 64 | 23 | 3.5 | 9.6 | 0.00 | 0.07 | 0.07 | 79 | 1009.9 |
| 20260507123238 | 62 | 338 | 4.3 | 6.1 | 0.07 | 0.07 | 0.07 | 88 | 1010.0 |
| 20260507122229 | 62 | 338 | 3.5 | 7.0 | 0.07 | 0.07 | 0.07 | 88 | 1010.2 |
| 20260507113736 | 63 | 23 | 3.5 | 14.8 | 0.00 | 0.00 | 0.00 | 76 | 1010.4 |
| 20260507113229 | 63 | 23 | 5.2 | 14.8 | 0.00 | 0.00 | 0.00 | 76 | 1010.5 |